DW8673 Jerrabomberra AU current weather conditions

sailwx.info

Wind from 281 at 0 knots gusting 1

Air temperature 3.9° C
Dewpoint 0.4° C

Last reported at 2016-Jul-24 11:48 UTC.
Time now 2016-Jul-24 12:53 UTC

Location: S 35°23' E 149°12'.
View on Google Maps.

See reports from other nearby stations

  
Tides and Currents Weather Stations Pressure Air Temp Water Temp Dewpoint Dewpoint Depression Visibility Wind Speed Wind Dir Waves Ship Positions
date/time (UTC)wind fromknots sea level pressurealtimeterstation pressurevisibilityair tempwater tempwave heightnotes
2016-Jul-24 11:48 281 0 gusting 1 3.9
2016-Jul-24 11:43 282 0 gusting 2 3.9
2016-Jul-24 11:38 294 1 gusting 4 3.9
2016-Jul-24 11:33 310 0 gusting 2 3.9
2016-Jul-24 11:18 049 3.9
2016-Jul-24 11:13 055 3.9
2016-Jul-24 11:08 062 3.9
2016-Jul-24 11:03 079 3.9
2016-Jul-24 10:48 024 3.9
2016-Jul-24 10:43 144 3.9
2016-Jul-24 10:38 086 0 gusting 4 3.9
2016-Jul-24 10:33 305 1 gusting 5 3.3
2016-Jul-24 10:18 229 4 gusting 6 3.9
2016-Jul-24 10:13 259 6 gusting 8 3.9
2016-Jul-24 10:08 256 4 gusting 6 4.4
2016-Jul-24 10:03 258 2 gusting 5 4.4
2016-Jul-24 09:48 270 1 gusting 4 4.4
2016-Jul-24 09:43 304 0 gusting 4 4.4
2016-Jul-24 09:38 295 3 gusting 6 4.4
2016-Jul-24 09:33 313 3 gusting 6 4.4
2016-Jul-24 09:18 275 2 gusting 5 5.0
2016-Jul-24 09:13 334 2 gusting 4 5.0
2016-Jul-24 09:08 339 1 gusting 5 5.0
2016-Jul-24 09:03 313 2 gusting 6 5.6
2016-Jul-24 08:48 249 3 gusting 5 5.6
2016-Jul-24 08:43 312 1 gusting 5 5.6
2016-Jul-24 08:38 300 2 gusting 5 5.6
2016-Jul-24 08:33 293 1 gusting 5 5.6
2016-Jul-24 08:18 268 3 gusting 6 5.6
2016-Jul-24 08:13 259 2 gusting 6 5.6
2016-Jul-24 08:08 291 1 gusting 5 5.6
2016-Jul-24 08:03 270 2 gusting 5 6.1
2016-Jul-24 07:48 302 4 gusting 6 6.1
2016-Jul-24 07:43 299 2 gusting 5 6.1
2016-Jul-24 07:38 321 2 gusting 5 6.1
2016-Jul-24 07:33 253 2 gusting 7 6.1
2016-Jul-24 07:18 256 2 gusting 5 6.1
2016-Jul-24 07:13 283 2 gusting 5 6.7
2016-Jul-24 07:08 267 2 gusting 6 6.7
2016-Jul-24 07:03 303 2 gusting 7 6.7
2016-Jul-24 06:48 318 2 gusting 6 7.2
2016-Jul-24 06:43 306 2 gusting 5 6.7
2016-Jul-24 06:38 332 3 gusting 6 7.2
2016-Jul-24 06:33 324 2 gusting 6 7.2
2016-Jul-24 06:18 287 3 gusting 6 7.2
2016-Jul-24 06:13 325 2 gusting 7 7.2
2016-Jul-24 06:08 289 4 gusting 7 7.2
2016-Jul-24 06:03 305 3 gusting 6 7.2
2016-Jul-24 05:48 311 4 gusting 8 7.2
2016-Jul-24 05:43 292 3 gusting 6 7.8
2016-Jul-24 05:38 276 4 gusting 6 7.8
2016-Jul-24 05:33 279 3 gusting 7 7.8
2016-Jul-24 05:18 332 3 gusting 6 8.3
2016-Jul-24 05:13 279 4 gusting 6 8.3
2016-Jul-24 05:08 312 4 gusting 7 8.3
2016-Jul-24 05:03 334 2 gusting 6 8.3
2016-Jul-24 04:48 278 4 gusting 6 8.9
2016-Jul-24 04:43 262 2 gusting 6 9.4
2016-Jul-24 04:38 250 1 gusting 5 9.4
2016-Jul-24 04:33 258 2 gusting 6 8.9
2016-Jul-24 04:18 256 4 gusting 6 9.4
2016-Jul-24 04:13 236 2 gusting 6 9.4
2016-Jul-24 04:08 322 2 gusting 6 8.3
2016-Jul-24 04:03 248 3 gusting 6 7.8
2016-Jul-24 03:48 277 4 gusting 5 7.2
2016-Jul-24 03:43 292 3 gusting 7 7.2
2016-Jul-24 03:38 252 4 gusting 7 7.8
2016-Jul-24 03:33 299 4 gusting 6 7.8
2016-Jul-24 03:18 322 2 gusting 4 7.8
2016-Jul-24 03:13 333 3 gusting 6 7.2
2016-Jul-24 03:08 323 4 gusting 5 7.2
2016-Jul-24 03:03 316 1 gusting 7 7.2
2016-Jul-24 02:48 262 2 gusting 7 7.8
2016-Jul-24 02:43 293 1 gusting 5 7.8
2016-Jul-24 02:38 305 4 gusting 6 7.8
2016-Jul-24 02:33 288 4 gusting 6 7.8
2016-Jul-24 02:18 316 2 gusting 5 7.8
2016-Jul-24 02:13 280 1 gusting 6 7.8
2016-Jul-24 02:08 343 4 gusting 6 7.8
2016-Jul-24 02:03 267 2 gusting 5 7.8
2016-Jul-24 01:48 317 2 gusting 6 8.3
2016-Jul-24 01:43 300 2 gusting 5 7.8
2016-Jul-24 01:38 306 2 gusting 6 7.8
2016-Jul-24 01:33 323 1 gusting 6 7.8
2016-Jul-24 01:18 242 2 gusting 6 7.8
2016-Jul-24 01:13 320 4 gusting 6 7.8
2016-Jul-24 01:08 301 2 gusting 5 8.3
2016-Jul-24 01:03 270 2 gusting 6 8.3
2016-Jul-24 00:48 282 2 gusting 6 8.3
2016-Jul-24 00:43 290 4 gusting 5 8.3
2016-Jul-24 00:38 295 3 gusting 5 8.3
2016-Jul-24 00:33 304 0 gusting 4 8.9
2016-Jul-24 00:18 247 9.4
2016-Jul-24 00:13 298 0 gusting 1 8.9
2016-Jul-24 00:08 166 8.9
2016-Jul-24 00:03 330 1 gusting 2 8.3
2016-Jul-23 23:48 345 1 gusting 4 7.2
2016-Jul-23 23:43 229 1 gusting 4 6.7
2016-Jul-23 23:38 305 0 gusting 2 6.7
2016-Jul-23 23:33 296 0 gusting 2 6.1
2016-Jul-23 23:18 313 1 gusting 2 5.6
2016-Jul-23 23:13 294 1 gusting 2 5.0
2016-Jul-23 23:08 330 1 gusting 2 4.4
2016-Jul-23 23:03 050 1 gusting 4 4.4
2016-Jul-23 22:48 270 0 gusting 0 2.8
2016-Jul-23 22:43 076 0 gusting 0 2.2
2016-Jul-23 22:38 121 0 gusting 1 2.2
2016-Jul-23 22:33 086 1.7
2016-Jul-23 22:18 093 0.6
2016-Jul-23 22:13 076 -0.0
2016-Jul-23 22:08 108 -0.0
2016-Jul-23 22:03 090 -0.6
2016-Jul-23 21:48 090 -1.1
2016-Jul-23 21:43 090 -1.1
2016-Jul-23 21:38 090 -1.7
2016-Jul-23 21:33 068 -1.7
2016-Jul-23 21:18 045 -1.7
2016-Jul-23 21:13 090 -1.7
2016-Jul-23 21:08 292 -1.7
2016-Jul-23 21:03 090 -1.1
2016-Jul-23 20:48 068 -1.1
2016-Jul-23 20:43 096 -1.1
2016-Jul-23 20:38 112 -1.1
2016-Jul-23 20:33 202 -1.1
2016-Jul-23 20:18 090 -0.6
2016-Jul-23 20:13 090 -0.6
2016-Jul-23 20:08 133 -0.0
2016-Jul-23 20:03 068 -0.0
2016-Jul-23 19:48 100 0 gusting 1 -0.0
2016-Jul-23 19:43 098 -0.6
2016-Jul-23 19:38 085 -0.0
2016-Jul-23 19:33 106 -0.6
2016-Jul-23 19:18 112 -0.0
2016-Jul-23 19:13 112 -0.0
2016-Jul-23 19:08 054 -0.0
2016-Jul-23 19:03 090 -0.0
2016-Jul-23 18:48 202 -0.0
2016-Jul-23 18:43 125 0.6
2016-Jul-23 18:38 130 0.6
2016-Jul-23 18:33 315 0.6
2016-Jul-23 18:13 240 1.1
2016-Jul-23 18:08 087 0 gusting 0 1.1
2016-Jul-23 18:03 101 0 gusting 1 1.1
2016-Jul-23 17:48 290 1 gusting 2 1.1
2016-Jul-23 17:43 324 0 gusting 1 1.1
2016-Jul-23 17:38 090 1.7
2016-Jul-23 17:33 088 0 gusting 1 1.7
2016-Jul-23 17:18 087 0 gusting 0 1.7
2016-Jul-23 17:13 082 0 gusting 0 1.7
2016-Jul-23 17:08 104 1.7
2016-Jul-23 17:03 338 2.2
2016-Jul-23 16:48 077 0 gusting 0 2.2
2016-Jul-23 16:43 164 2.8
2016-Jul-23 16:38 261 2 gusting 4 2.8
2016-Jul-23 16:33 294 1 gusting 5 2.8
2016-Jul-23 16:18 255 1 gusting 4 2.8
2016-Jul-23 16:13 313 1 gusting 4 2.8
2016-Jul-23 16:08 326 2 gusting 4 2.8
2016-Jul-23 16:03 341 2 gusting 4 2.8
2016-Jul-23 15:48 011 0 gusting 1 2.8
2016-Jul-23 15:43 318 0 gusting 0 2.2
2016-Jul-23 15:38 338 2.8
2016-Jul-23 15:33 045 2.8
2016-Jul-23 15:18 099 2.8
2016-Jul-23 15:13 087 3.3
2016-Jul-23 15:08 264 3.3
2016-Jul-23 15:03 268 3.3
2016-Jul-23 14:48 245 3 gusting 5 3.9
2016-Jul-23 14:43 287 2 gusting 6 3.9
2016-Jul-23 14:38 229 2 gusting 4 3.9
2016-Jul-23 14:33 268 2 gusting 5 3.9
2016-Jul-23 14:18 302 1 gusting 5 3.3
2016-Jul-23 14:13 258 0 gusting 5 3.3
2016-Jul-23 14:08 252 3.3
2016-Jul-23 14:03 299 0 gusting 2 3.3
2016-Jul-23 13:48 126 3.3
2016-Jul-23 13:43 105 3.3
2016-Jul-23 13:38 081 3.3
2016-Jul-23 13:33 080 3.3
2016-Jul-23 13:18 088 0 gusting 1 3.9
2016-Jul-23 13:13 115 0 gusting 1 3.9
2016-Jul-23 13:08 266 1 gusting 1 4.4
2016-Jul-23 13:03 240 1 gusting 6 4.4
2016-Jul-23 12:48 256 2 gusting 6 4.4
2016-Jul-23 12:43 277 2 gusting 6 4.4
2016-Jul-23 12:38 277 2 gusting 6 4.4
2016-Jul-23 12:33 258 2 gusting 11 4.4
2016-Jul-23 12:18 246 2 gusting 5 4.4
2016-Jul-23 12:13 253 4 gusting 6 4.4
2016-Jul-23 12:08 238 5 gusting 6 4.4
2016-Jul-23 12:03 252 4 gusting 11 4.4
2016-Jul-23 11:48 258 5 gusting 7 4.4
2016-Jul-23 11:43 263 5 gusting 8 4.4
2016-Jul-23 11:38 290 4 gusting 8 4.4
2016-Jul-23 11:33 256 5 gusting 10 4.4
2016-Jul-23 11:18 252 7 gusting 8 5.0
2016-Jul-23 11:13 248 5 gusting 8 5.0
2016-Jul-23 11:08 252 7 gusting 12 5.0
2016-Jul-23 11:03 242 6 gusting 10 5.0
2016-Jul-23 10:48 245 4 gusting 11 5.0
2016-Jul-23 10:43 246 5 gusting 8 5.0
2016-Jul-23 10:38 243 6 gusting 13 5.0
2016-Jul-23 10:33 262 6 gusting 7 5.0
2016-Jul-23 10:18 270 4 gusting 6 5.0
2016-Jul-23 10:13 255 2 gusting 6 5.0
2016-Jul-23 10:08 227 4 gusting 6 5.0
2016-Jul-23 10:03 260 5 gusting 10 5.0
2016-Jul-23 09:48 275 4 gusting 6 5.0
2016-Jul-23 09:43 245 3 gusting 8 5.0
2016-Jul-23 09:38 247 5 gusting 8 5.0
2016-Jul-23 09:33 244 3 gusting 8 4.4
2016-Jul-23 09:18 278 3 gusting 6 5.0
2016-Jul-23 09:13 265 4 gusting 6 5.0
2016-Jul-23 09:08 249 3 gusting 6 5.0
2016-Jul-23 09:03 256 2 gusting 7 5.6
2016-Jul-23 08:48 248 4 gusting 6 5.6
2016-Jul-23 08:43 265 5 gusting 8 5.6
2016-Jul-23 08:38 250 5 gusting 7 5.6
2016-Jul-23 08:33 270 5 gusting 12 5.6
2016-Jul-23 08:18 257 4 gusting 12 6.1
2016-Jul-23 08:13 284 2 gusting 5 6.1
2016-Jul-23 08:08 291 3 gusting 6 6.1
2016-Jul-23 08:03 276 2 gusting 5 6.1
2016-Jul-23 07:48 257 4 gusting 5 6.1
2016-Jul-23 07:43 256 2 gusting 6 6.1
2016-Jul-23 07:38 297 5 gusting 7 6.1
2016-Jul-23 07:33 231 4 gusting 7 6.1
2016-Jul-23 07:18 278 1 gusting 6 6.1
2016-Jul-23 07:13 275 2 gusting 6 6.7
2016-Jul-23 07:08 269 2 gusting 10 6.7
2016-Jul-23 07:03 277 4 gusting 10 7.2
2016-Jul-23 06:48 288 4 gusting 10 8.3
2016-Jul-23 06:43 292 2 gusting 5 8.3
2016-Jul-23 06:38 267 6 gusting 13 9.4
2016-Jul-23 06:33 308 4 gusting 13 9.4
2016-Jul-23 06:18 267 4 gusting 7 10.6
2016-Jul-23 06:13 238 5 gusting 6 10.0
2016-Jul-23 06:08 272 3 gusting 5 10.6
2016-Jul-23 06:03 308 4 gusting 7 10.0
2016-Jul-23 05:48 260 5 gusting 11 10.0
2016-Jul-23 05:43 297 6 gusting 8 9.4
2016-Jul-23 05:38 265 7 gusting 14 8.3
2016-Jul-23 05:33 266 4 gusting 11 8.3
2016-Jul-23 05:18 249 4 gusting 10 10.0
2016-Jul-23 05:13 260 5 gusting 10 10.0
2016-Jul-23 05:08 292 4 gusting 12 10.6
2016-Jul-23 05:03 287 5 gusting 11 10.6
2016-Jul-23 04:48 265 5 gusting 10 10.6
2016-Jul-23 04:43 327 5 gusting 11 11.1
2016-Jul-23 04:38 278 4 gusting 8 11.1
2016-Jul-23 04:33 271 6 gusting 13 11.1
2016-Jul-23 04:18 300 6 gusting 8 11.1
2016-Jul-23 04:13 253 5 gusting 7 11.1
2016-Jul-23 04:08 285 4 gusting 11 11.1
2016-Jul-23 04:03 252 6 gusting 13 10.6
2016-Jul-23 03:48 262 7 gusting 13 10.6
2016-Jul-23 03:43 301 6 gusting 11 11.1
2016-Jul-23 03:38 314 6 gusting 12 10.6
2016-Jul-23 03:33 257 6 gusting 13 10.6
2016-Jul-23 03:18 213 8 gusting 15 10.0
2016-Jul-23 03:13 265 8 gusting 17 10.0
2016-Jul-23 03:08 251 8 gusting 18 10.0
2016-Jul-23 03:03 285 10 gusting 17 10.0
2016-Jul-23 02:48 304 6 gusting 13 11.1
2016-Jul-23 02:43 281 6 gusting 12 11.1
2016-Jul-23 02:38 297 6 gusting 13 11.7
2016-Jul-23 02:33 299 5 gusting 15 11.7
2016-Jul-23 02:18 258 5 gusting 13 11.1
2016-Jul-23 02:13 280 7 gusting 11 11.1
2016-Jul-23 02:08 267 5 gusting 7 10.0
2016-Jul-23 02:03 271 6 gusting 15 10.0
2016-Jul-23 01:48 253 4 gusting 10 10.0
2016-Jul-23 01:43 293 5 gusting 8 10.0
2016-Jul-23 01:38 303 5 gusting 14 10.0
2016-Jul-23 01:33 303 6 gusting 15 9.4
2016-Jul-23 01:18 224 5 gusting 11 9.4
2016-Jul-23 01:13 288 7 gusting 13 9.4
2016-Jul-23 01:08 280 5 gusting 10 10.0
2016-Jul-23 01:03 308 6 gusting 12 10.0
2016-Jul-23 00:48 286 5 gusting 17 9.4
2016-Jul-23 00:43 300 4 gusting 6 9.4
2016-Jul-23 00:38 279 5 gusting 8 8.9
2016-Jul-23 00:33 264 6 gusting 11 8.9
2016-Jul-23 00:18 269 3 gusting 11 8.9
2016-Jul-23 00:13 292 3 gusting 7 8.3
2016-Jul-23 00:08 262 5 gusting 8 8.3
2016-Jul-23 00:03 267 5 gusting 11 8.3
2016-Jul-22 23:48 292 4 gusting 8 8.3
2016-Jul-22 23:43 292 6 gusting 11 8.3
2016-Jul-22 23:38 266 6 gusting 11 8.3
2016-Jul-22 23:33 271 5 gusting 11 8.3
2016-Jul-22 23:18 238 5 gusting 7 7.8
2016-Jul-22 23:13 243 4 gusting 12 7.2
2016-Jul-22 23:08 262 6 gusting 10 7.2
2016-Jul-22 23:03 254 6 gusting 11 7.2
2016-Jul-22 22:48 258 5 gusting 10 6.7
2016-Jul-22 22:43 253 4 gusting 11 6.7
2016-Jul-22 22:38 271 5 gusting 8 6.7
2016-Jul-22 22:33 264 5 gusting 8 6.7
2016-Jul-22 22:18 312 2 gusting 6 6.1
2016-Jul-22 22:13 319 5 gusting 6 6.1
2016-Jul-22 22:08 247 3 gusting 10 6.1
2016-Jul-22 22:03 269 6 gusting 13 6.1
2016-Jul-22 21:48 311 4 gusting 13 5.6
2016-Jul-22 21:43 233 5 gusting 11 5.6
2016-Jul-22 21:38 281 2 gusting 5 5.6
2016-Jul-22 21:33 301 4 gusting 6 5.6
2016-Jul-22 21:18 254 3 gusting 6 5.0
2016-Jul-22 21:13 268 4 gusting 6 5.6
2016-Jul-22 21:08 262 4 gusting 7 5.6
2016-Jul-22 21:03 265 4 gusting 11 5.0
2016-Jul-22 20:48 272 6 gusting 11 5.6
2016-Jul-22 20:43 252 5 gusting 11 5.6
2016-Jul-22 20:38 234 8 gusting 15 5.6
2016-Jul-22 20:33 310 4 gusting 13 5.6
2016-Jul-22 20:18 258 11 gusting 15 5.6
2016-Jul-22 20:13 301 9 gusting 17 6.1
2016-Jul-22 20:08 291 4 gusting 10 6.1
2016-Jul-22 20:03 282 4 gusting 13 6.1
2016-Jul-22 19:48 254 10 gusting 19 6.7
2016-Jul-22 19:43 242 10 gusting 19 6.7
2016-Jul-22 19:38 276 6 gusting 13 6.7
2016-Jul-22 19:33 262 6 gusting 13 6.1
2016-Jul-22 19:18 292 6 gusting 14 6.1
2016-Jul-22 19:13 282 6 gusting 12 6.7
2016-Jul-22 19:08 285 5 gusting 10 6.7
2016-Jul-22 19:03 264 6 gusting 17 6.7
2016-Jul-22 18:48 243 5 gusting 18 7.2
2016-Jul-22 18:43 247 8 gusting 15 7.2
2016-Jul-22 18:38 251 8 gusting 12 7.2
2016-Jul-22 18:33 261 6 gusting 21 7.8
2016-Jul-22 18:13 275 6 gusting 13 7.2
2016-Jul-22 18:08 256 7 gusting 13 7.8
2016-Jul-22 18:03 259 11 gusting 19 8.3
2016-Jul-22 17:48 288 8 gusting 13 8.3
2016-Jul-22 17:43 264 6 gusting 13 8.3
2016-Jul-22 17:38 266 7 gusting 13 8.3
2016-Jul-22 17:33 257 5 gusting 18 8.3
2016-Jul-22 17:18 244 10 gusting 17 8.9
2016-Jul-22 17:13 283 8 gusting 19 8.9
2016-Jul-22 17:08 276 8 gusting 17 8.9
2016-Jul-22 17:03 244 9 gusting 20 9.4
2016-Jul-22 16:48 256 6 gusting 12 9.4
2016-Jul-22 16:43 258 7 gusting 14 9.4
2016-Jul-22 16:38 285 6 gusting 11 9.4
2016-Jul-22 16:33 290 7 gusting 13 9.4
2016-Jul-22 16:18 277 6 gusting 11 8.9
2016-Jul-22 16:13 266 6 gusting 11 8.9
2016-Jul-22 16:08 264 4 gusting 7 8.9
2016-Jul-22 16:03 310 4 gusting 14 8.9
2016-Jul-22 15:48 262 5 gusting 11 8.9
2016-Jul-22 15:43 237 7 gusting 11 8.9
2016-Jul-22 15:38 253 5 gusting 12 9.4
2016-Jul-22 15:33 267 6 gusting 15 9.4
2016-Jul-22 15:18 269 6 gusting 19 10.0
2016-Jul-22 15:13 263 8 gusting 14 10.6
2016-Jul-22 15:08 273 8 gusting 14 10.6
2016-Jul-22 15:03 265 8 gusting 18 11.1
2016-Jul-22 14:48 281 5 gusting 10 11.7
2016-Jul-22 14:43 249 5 gusting 14 11.7
2016-Jul-22 14:38 282 6 gusting 11 11.7
2016-Jul-22 14:33 229 5 gusting 14 11.7
2016-Jul-22 14:18 252 6 gusting 10 11.7
2016-Jul-22 14:13 258 7 gusting 15 11.7
2016-Jul-22 14:08 298 6 gusting 12 11.7
2016-Jul-22 14:03 204 6 gusting 13 11.7
2016-Jul-22 13:48 276 7 gusting 14 11.7
2016-Jul-22 13:43 255 6 gusting 11 11.7
2016-Jul-22 13:38 246 5 gusting 12 11.7
2016-Jul-22 13:33 278 7 gusting 13 11.7
2016-Jul-22 13:18 228 6 gusting 11 12.2
2016-Jul-22 13:13 256 8 gusting 13 12.2
2016-Jul-22 13:08 256 10 gusting 17 12.2
2016-Jul-22 13:03 255 5 gusting 11 12.2
2016-Jul-22 12:48 264 6 gusting 13 12.2
2016-Jul-22 12:43 250 6 gusting 11 12.2
2016-Jul-22 12:38 318 5 gusting 8 12.2
2016-Jul-22 12:33 281 5 gusting 14 12.8
2016-Jul-22 12:18 243 9 gusting 15 13.3
2016-Jul-22 12:13 304 7 gusting 14 13.3
2016-Jul-22 12:08 332 5 gusting 14 13.3
2016-Jul-22 12:03 293 6 gusting 13 13.3